This is the latest recevied weather packets stored in our database for station/object PY2XH-13. If no packets are shown the sender has not sent any weather packets the latest 10 day(s).
| Time | Temp. | Humidity | Pressure | Rain* | Wind** | Luminosity | Snow |
|---|---|---|---|---|---|---|---|
| 1778078764 | 23.89° C | 59% | 1035.9 hPa | - | - | - | - |
| 1778076964 | 23.33° C | 63% | 1036.5 hPa | - | - | - | - |
| 1778075165 | 23.33° C | 61% | 1037.1 hPa | - | - | - | - |
| 1778073364 | 22.78° C | 63% | 1037.4 hPa | - | - | - | - |
| 1778071564 | 22.78° C | 66% | 1037.5 hPa | - | - | - | - |
| 1778069765 | 22.78° C | 67% | 1037.5 hPa | - | - | - | - |
| 1778067965 | 22.22° C | 68% | 1037 hPa | - | - | - | - |
| 1778066165 | 22.22° C | 68% | 1037.1 hPa | - | - | - | - |
| 1778064365 | 22.22° C | 69% | 1036.6 hPa | - | - | - | - |
| 1778062564 | 22.22° C | 70% | 1036.2 hPa | - | - | - | - |
| 1778060764 | 21.67° C | 71% | 1035.8 hPa | - | - | - | - |
| 1778058964 | 22.22° C | 70% | 1035.4 hPa | - | - | - | - |
| 1778057164 | 22.78° C | 70% | 1035.2 hPa | - | - | - | - |
| 1778055364 | 22.78° C | 70% | 1034.8 hPa | - | - | - | - |
| 1778053564 | 22.78° C | 70% | 1034.6 hPa | - | - | - | - |
| 1778051764 | 22.78° C | 70% | 1034.9 hPa | - | - | - | - |
| 1778049965 | 22.78° C | 70% | 1034.8 hPa | - | - | - | - |
| 1778048164 | 22.78° C | 71% | 1035 hPa | - | - | - | - |
| 1778046364 | 22.78° C | 71% | 1035 hPa | - | - | - | - |
| 1778044564 | 22.78° C | 71% | 1035.2 hPa | - | - | - | - |
| 1778042764 | 22.78° C | 71% | 1035.6 hPa | - | - | - | - |
| 1778040965 | 22.78° C | 71% | 1035.7 hPa | - | - | - | - |
| 1778039164 | 22.78° C | 71% | 1035.8 hPa | - | - | - | - |
| 1778037364 | 22.78° C | 72% | 1036.1 hPa | - | - | - | - |
| 1778035564 | 22.78° C | 73% | 1036.1 hPa | - | - | - | - |
* Rain since midnight (hover to see other rain measurements)
** Current wind speed in m/s (hover to see current wind gust speed)